GW5022 Weather Reports


time (UTC)temp
C
wind
direction
speed
KPH
gust
KPH
rain 1hr
cm
rain 24hr
cm
rain mn
cm
humidity
%
barometer
mb
20260504070201 8 242 14.5 17.7 0.00 0.00 0.00 71 1005.0
20260504060202 7 237 12.9 14.5 0.00 0.00 0.00 66 1005.6
20260504050227 7 240 9.7 9.7 0.00 0.00 0.00 56 1006.0
20260504045724 7 240 9.7 9.7 0.00 0.00 0.00 56 1006.0
20260504044709 7 214 9.7 17.7 0.00 0.00 0.00 54 1006.0
20260504043204 7 227 14.5 16.1 0.00 0.00 0.00 51 1006.3
20260504041704 8 228 14.5 16.1 0.00 0.00 0.00 50 1006.3
20260504040228 8 231 16.1 17.7 0.00 0.00 0.00 48 1006.0
20260504034738 8 224 14.5 17.7 0.00 0.00 0.00 46 1006.0
20260504031702 8 225 12.9 12.9 0.00 0.00 0.00 46 1006.1
20260504030203 8 231 12.9 12.9 0.00 0.00 0.00 46 1006.2
20260504024708 8 228 12.9 12.9 0.00 0.00 0.00 47 1006.2
20260504023202 8 223 11.3 12.9 0.00 0.00 0.00 48 1006.5
20260504020202 8 234 11.3 14.5 0.00 0.00 0.00 48 1007.0
20260504014704 9 237 9.7 16.1 0.00 0.00 0.00 48 1007.0
20260504013202 9 233 12.9 12.9 0.00 0.00 0.00 48 1006.7
20260504011711 9 248 8.0 9.7 0.00 0.00 0.00 49 1006.7
20260504010228 10 235 11.3 12.9 0.00 0.00 0.00 46 1006.4
20260504003202 10 234 12.9 14.5 0.00 0.00 0.00 43 1006.3
20260504001702 10 235 11.3 14.5 0.00 0.00 0.00 42 1006.3
20260503235719 11 245 12.9 17.7 0.00 0.00 0.00 41 1006.5
20260503234713 11 243 12.9 14.5 0.00 0.00 0.00 40 1006.5
20260503233229 12 237 11.3 16.1 0.00 0.00 0.00 39 1006.3
20260503231214 12 239 16.1 17.7 0.00 0.00 0.00 38 1006.4
20260503225845 12 243 14.5 20.9 0.00 0.00 0.00 35 1006.1
20260503224702 12 244 16.1 19.3 0.00 0.00 0.00 35 1006.1
20260503221702 12 263 17.7 24.1 0.00 0.00 0.00 32 1006.1
20260503220202 12 260 16.1 25.7 0.00 0.00 0.00 32 1006.2
20260503214701 12 258 19.3 22.5 0.00 0.00 0.00 33 1006.2
20260503213202 12 255 16.1 24.1 0.00 0.00 0.00 34 1006.5
20260503211702 12 244 19.3 24.1 0.00 0.00 0.00 35 1006.5
20260503210203 12 266 20.9 25.7 0.00 0.00 0.00 34 1006.4
20260503203202 12 259 20.9 25.7 0.00 0.00 0.00 35 1006.6
20260503201702 12 281 14.5 25.7 0.00 0.00 0.00 37 1006.6
20260503200228 11 256 17.7 24.1 0.00 0.00 0.00 37 1006.7
20260503194728 11 300 22.5 25.7 0.00 0.00 0.00 35 1006.7
20260503193202 11 260 19.3 19.3 0.00 0.00 0.00 37 1007.3
20260503191702 11 258 22.5 29.0 0.00 0.00 0.00 37 1007.3
20260503190202 11 269 17.7 19.3 0.00 0.00 0.00 38 1007.5
20260503184702 11 276 19.3 24.1 0.00 0.00 0.00 38 1007.5
20260503183201 10 267 14.5 17.7 0.00 0.05 0.00 42 1007.6
20260503181701 10 252 16.1 19.3 0.00 0.25 0.00 43 1007.6
20260503180202 10 291 12.9 17.7 0.00 0.43 0.00 45 1008.0
20260503174702 10 260 22.5 22.5 0.00 0.43 0.00 45 1008.0
20260503173202 10 269 16.1 19.3 0.00 0.43 0.00 46 1008.1
20260503171701 10 260 17.7 22.5 0.00 0.43 0.00 44 1008.1
20260503170202 10 309 17.7 19.3 0.00 0.43 0.00 45 1008.8
20260503160201 8 287 16.1 16.1 0.00 0.43 0.00 47 1009.6
20260503150202 10 316 11.3 12.9 0.00 0.43 0.00 46 1010.2
20260503140202 8 335 12.9 12.9 0.00 0.43 0.00 59 1010.7
20260503130201 7 354 8.0 8.0 0.00 0.46 0.00 70 1010.9
20260503120201 6 331 9.7 9.7 0.00 0.53 0.00 73 1010.8
20260503110201 6 341 8.0 8.0 0.00 0.58 0.00 76 1010.8
20260503100202 3 308 8.0 8.0 0.00 0.66 0.00 91 1010.4
20260503080201 5 251 11.3 11.3 0.00 0.71 0.00 86 1010.6